Lihue, HI

9:31 PM HST on March 27, 2017 (GMT -1000)
Lihue

Weather History for PHLI - March, 2013

Change the Weather History Date:

Sunday, March 17, 2013

  Actual Average Record
Temperature  
Mean Temperature 65 °F 73 °F  
Max Temperature 74 °F 78 °F 83 °F (1984)
Min Temperature 56 °F 67 °F 52 °F (1955)
Degree Days  
Heating Degree Days 0 0  
Month to date heating degree days 0 0  
Since 1 July heating degree days 0 0  
Cooling Degree Days 0 8  
Month to date cooling degree days 75 124  
Year to date cooling degree days 462 519  
Growing Degree Days 12 (Base 50)    
Moisture  
Dew Point 57 °F    
Average Humidity 73    
Maximum Humidity 93    
Minimum Humidity 53    
Precipitation  
Precipitation 0.12 in 0.15 in 1.56 in (1997)
Month to date precipitation 0.28 2.52  
Year to date precipitation 7.16 9.43  
Snow  
Snow 0.00 in - - ()
Month to date snowfall 0.0  
Since 1 July snowfall 0.0  
Snow Depth 0.00 in    
Sea Level Pressure  
Sea Level Pressure 30.02 in    
Wind  
Wind Speed 6 mph (NNW)    
Max Wind Speed 20 mph    
Max Gust Speed 24 mph    
Visibility 8 miles    
Events Rain    
T = Trace of Precipitation, MM = Missing Value Source: NWS Daily Summary

Daily Weather History Graph

Daily Weather History Graph

Search for Another Location

Airport or City:

Trip Planner

Search our weather history database for the weather conditions in past years. The results will help you decide how hot, cold, wet, or windy it might be!

Date:

Astronomy

Mar. 17, 2013 Rise Set
Actual Time 6:43 AM HST 6:47 PM HST
Civil Twilight 6:21 AM HST 7:09 PM HST
Nautical Twilight 5:55 AM HST 7:35 PM HST
Astronomical Twilight 5:29 AM HST 8:01 PM HST
Moon 10:44 AM HST (3/17) No Moon Set
Length of Visible Light 12h 48m
Length of Day
12h 03m
Waxing Crescent, 33% of the Moon is Illuminated
Mar 17
Waxing Crescent
Mar 19
First Quarter
Mar 26
Full
Apr 2
Last Quarter
Apr 9
New

Hourly Weather History & Observations

Time (HST) Temp. Dew Point Humidity Pressure Visibility Wind Dir Wind Speed Gust Speed Precip Events Conditions
12:53 AM 62.1 °F 55.0 °F 78% 30.02 in 10.0 mi NW 4.6 mph - N/A   Partly Cloudy
1:53 AM 61.0 °F 54.0 °F 78% 30.01 in 10.0 mi NNW 4.6 mph - N/A   Clear
2:53 AM 62.1 °F 55.0 °F 78% 30.01 in 10.0 mi WNW 4.6 mph - N/A   Mostly Cloudy
3:53 AM 59.0 °F 54.0 °F 83% 29.99 in 10.0 mi WSW 3.5 mph - N/A   Clear
4:53 AM 59.0 °F 54.0 °F 83% 29.99 in 10.0 mi West 5.8 mph - N/A   Clear
5:53 AM 59.0 °F 52.0 °F 78% 30.00 in 10.0 mi WNW 3.5 mph - N/A   Clear
6:53 AM 59.0 °F 52.0 °F 78% 30.01 in 10.0 mi Calm Calm - N/A   Clear
7:53 AM 62.1 °F 55.0 °F 78% 30.03 in 10.0 mi West 5.8 mph - N/A   Clear
8:53 AM 69.1 °F 51.1 °F 53% 30.04 in 10.0 mi NNW 5.8 mph - N/A   Clear
9:53 AM 69.1 °F 54.0 °F 58% 30.06 in 10.0 mi NW 10.4 mph - N/A   Overcast
10:53 AM 66.9 °F 57.0 °F 70% 30.06 in 10.0 mi North 10.4 mph - N/A   Overcast
11:53 AM 70.0 °F 57.9 °F 65% 30.04 in 10.0 mi ENE 9.2 mph - 0.00 in   Mostly Cloudy
12:53 PM 72.0 °F 57.0 °F 59% 30.01 in 10.0 mi NE 16.1 mph - N/A   Partly Cloudy
1:53 PM 69.1 °F 57.0 °F 65% 30.00 in 10.0 mi NE 11.5 mph - N/A   Overcast
2:39 PM 66.2 °F 60.8 °F 83% 30.00 in 4.0 mi NNE 11.5 mph 24.2 mph 0.00 in Rain Rain
2:49 PM 64.4 °F 62.6 °F 94% 30.00 in 2.5 mi NE 5.8 mph - 0.06 in Rain Heavy Rain
2:53 PM 64.9 °F 62.1 °F 90% 30.00 in 2.5 mi NNE 4.6 mph - 0.07 in Rain Heavy Rain
2:54 PM 64.4 °F 62.6 °F 94% 30.00 in 2.5 mi NNE 5.8 mph - 0.00 in Rain Heavy Rain
3:01 PM 64.4 °F 60.8 °F 88% 29.99 in 3.0 mi North 4.6 mph - 0.00 in Rain Light Rain
3:14 PM 64.4 °F 60.8 °F 88% 29.99 in 2.5 mi NNE 9.2 mph - 0.01 in Rain Light Rain
3:20 PM 64.4 °F 60.8 °F 88% 29.99 in 3.0 mi NNW 13.8 mph - 0.01 in Rain Rain
3:22 PM 62.6 °F 60.8 °F 94% 29.99 in 2.5 mi NNW 12.7 mph - 0.02 in Rain Heavy Rain
3:33 PM 64.4 °F 60.8 °F 88% 29.99 in 5.0 mi WNW 10.4 mph - 0.05 in Rain Light Rain
3:53 PM 64.0 °F 59.0 °F 84% 29.99 in 10.0 mi West 8.1 mph - 0.05 in   Overcast
4:53 PM 66.0 °F 60.1 °F 81% 29.99 in 10.0 mi Calm Calm - 0.00 in   Overcast
5:21 PM 64.4 °F 59.0 °F 83% 30.00 in 10.0 mi Calm Calm - N/A   Overcast
5:45 PM 62.6 °F 59.0 °F 88% 30.01 in 5.0 mi North 11.5 mph - 0.00 in Rain Light Rain
5:53 PM 62.1 °F 59.0 °F 90% 30.01 in 6.0 mi NNW 11.5 mph - 0.00 in Rain Light Rain
6:53 PM 63.0 °F 57.0 °F 81% 30.02 in 10.0 mi North 3.5 mph - 0.00 in   Overcast
7:53 PM 63.0 °F 59.0 °F 87% 30.04 in 10.0 mi West 5.8 mph - N/A   Overcast
8:53 PM 62.1 °F 57.9 °F 86% 30.06 in 10.0 mi WNW 5.8 mph - N/A   Overcast
9:53 PM 62.1 °F 57.0 °F 84% 30.07 in 10.0 mi NW 5.8 mph - N/A   Overcast
10:53 PM 60.1 °F 57.0 °F 90% 30.06 in 10.0 mi West 6.9 mph - N/A   Unknown
11:53 PM 59.0 °F 55.9 °F 90% 30.06 in 10.0 mi West 3.5 mph - N/A   Partly Cloudy